COSMOS 2251 DEB, 34642

Orbit data source: Space-Track

COSMOS 2251 DEB, 34642 is space debris in LEO originally from a launch on Wed, 16 Jun 1993 UTC launched from the Plesetsk Missile And Space Complex (PKMTR). The debris from Iridium 33, an American commercial communications satellite, has been tracked extensively since its accidental collision with the defunct Russian satellite Cosmos 2251 in 2009. This event, occurring at high speed in low Earth orbit (LEO), generated thousands of pieces of space debris, significantly increasing the risk of further collisions. The Iridium 33 debris cloud has impacted space traffic management and orbital debris mitigation strategies, making it a subject of ongoing study in space situational awareness.

Loading next visibility...
Identifier
34642, 1993-036XP
Orbit
LEO
Country
Flag of CISCIS
Related business
Manufacturer
Unknown
Mission
Spacecraft
Bus & Motor
Unknown
Mass
Unknown
Launch date (UTC)
1993-06-16 (33 years ago)
Launch vehicle
Unknown
Launch site
Plesetsk Missile And Space Complex (PKMTR)
Object type
Payload
Rocket body
Debris
Shape & HBR
Unknown shape, 0.1 m
Radar Cross Section
Medium (>0.1 m² and <1 m²)

Expand to show TLE details & history
Last TLE update: 1 day ago

TLE from 1 day ago
0 COSMOS 2251 DEB
1 34642U 93036XP  26167.35383469  .00001635  00000-0  93989-3 0  9999
2 34642  74.0036  18.0911 0209093 154.9951  24.3983 13.99614037878890
Epoch: 2026-06-16T08:29Z
TLE epoch observation values (Epoch: 2026-06-16T08:29:31.317Z)
Latitude
-0.50427°
Longitude
166.22733°
Altitude
759.802 km
Speed
7.545 km/s
True Right ascension
13h 12m 56s
True Declination
0° 30' 05"
Sunlit
Object was in daylight at epoch
Visualization orbit readout
Latitude
Unknown
Longitude
Unknown
Altitude
Unknown
Speed
Unknown
Apparent Right ascension
Unknown
Apparent Declination
Unknown
Sunlit
N/A
Visualization observer readout
Local Sidereal Time
04:26:02
Azimuth
Unknown
Elevation
Unknown
Doppler factor
Unknown
Orbital elements
Apogee altitude
1,044.828 km
Perigee altitude
740.767 km
Semi-major axis
7,270.935 km
Eccentricity
0.02091
Inclination
74.0036°
RAAN
18.0911°
Arg. of periapsis
154.9951°
True anomaly
25.4121°
Mean anomaly
24.3983°
Eccentric anomaly
24.90276°
Mean motion
3.50072 °/min
Orbital period
102.84 mins
BSTAR
0.00093989
Loading maneuver chart data...
Computing Atmospheric mass density...

Documentation

Showing up to 5 results
|